OneWeb SL0409

operational
NORAD ID: 50488 Int'l Des: 2021-132 Owner: ONEWEBN Country: UK Constellation: oneweb
LEOCIRCULARPOLARONEWEB_TYPE

About OneWeb SL0409

Description loading...

Live Position

Loading 3D Globe...

Upcoming Passes

Altitude History

Altitude vs Time

uPlot chart will show altitude changes over time

Two-Line Element Set

1 50488U 21132V 25341.21453147 .00000571 00000-0 15750-2 0 9999
2 50488 87.8874 59.2691 0001338 111.6892 248.4378 13.11419128190427
Epoch: Dec 7, 2025 • Age: 23 hours

Current Status

Altitude 1225.5 km
Velocity 7.24 km/s
Sub-Earth Point -20.55°S, 100.58°E
Launch Date Dec 27, 2021
Age 3.9 years
Type internet

Technical Details

Classification Payload
Mass 148.00 kg
Dry Mass 140.00 kg
Total Mass 148.00 kg
Length 1.30 m
Diameter 1.00 m
Span 5.00 m
Shape Trapezoid+2 pan
Manufacturer ONEWUS
Bus Type ARROW
Phase Status In Orbit
Owner/State ONEWEBN/UK

Large Constellations

Loading constellations...